Wind_Speed
33 33 33 33 33 34 34 35 35 35 35 35 35 36 36 37 37 36 37 37 38 38 38 38 38 39 39 40 40 40 40 41 41 42 42 42 42 43 43 44 44 44 44
34 34 34 34 34 34 34 35 35 36 36 35 35 36 36 37 37 37 36 36 37 37 37 37 37 38 38 39 40 40 40 41 41 42 43 43 44 44 44 45 45 45 46
33 34 35 34 35 35 35 35 35 35 35 35 36 36 36 36 36 36 37 38 38 37 37 37 37 38 39 39 39 40 41 41 42 43 44 44 45 45 45 45 46 47 46
33 34 35 35 35 35 35 35 35 35 35 35 36 36 36 36 36 37 37 37 37 37 37 37 38 39 39 40 40 40 41 42 42 43 44 45 45 46 46 46 46 46 46
32 33 34 35 35 35 35 35 35 35 36 36 36 36 36 36 36 37 37 37 37 38 38 38 39 39 39 39 39 40 41 42 42 43 44 45 46 47 47 46 46 46 47
30 32 34 35 35 35 35 34 34 35 35 36 36 37 37 37 37 37 36 36 37 37 38 38 38 38 38 39 39 40 41 42 42 43 44 44 45 46 47 48 47 47 47
29 31 33 34 34 34 34 34 34 35 35 35 36 36 36 37 37 37 37 37 37 37 37 38 38 38 38 39 39 40 40 41 41 42 43 43 44 44 45 46 47 48 48
26 28 30 32 33 34 35 35 36 36 36 36 36 36 37 37 37 37 37 38 38 37 37 37 38 38 39 39 40 40 40 41 41 41 42 43 43 44 45 46 47 48 48
25 26 28 30 32 33 34 35 36 36 37 37 37 38 37 37 37 37 37 37 38 37 37 37 37 37 38 38 38 38 39 39 40 41 41 42 44 45 46 47 48 48 48
25 26 28 30 31 33 34 35 35 36 36 37 37 37 37 36 36 36 36 36 37 37 37 37 37 37 37 37 37 38 38 39 40 41 41 43 44 46 46 47 47 47 47
25 27 28 30 31 31 32 33 33 34 34 35 35 35 35 35 34 35 35 35 36 36 36 36 36 36 37 37 37 38 38 39 40 41 42 44 45 45 45 45 46 46 46
25 26 27 28 29 30 31 31 32 33 33 33 33 34 34 34 34 35 35 35 35 35 35 35 35 36 36 36 37 38 38 39 40 41 42 44 45 44 45 45 45 44 44
24 25 26 26 28 29 29 30 30 31 31 32 32 32 33 33 34 34 34 34 34 35 35 35 36 36 36 37 37 38 38 39 40 41 42 43 43 43 43 43 43 43 43
25 25 25 26 27 28 29 29 30 30 30 30 31 31 31 32 33 33 33 34 35 35 35 35 35 36 36 37 37 38 38 39 40 40 41 41 42 42 42 42 42 43 43
25 26 26 27 28 28 28 28 28 29 29 29 30 30 31 31 32 32 33 33 33 34 34 35 36 36 37 37 38 38 39 39 40 40 40 40 41 41 41 41 41 42 42
26 27 27 28 28 28 28 28 28 28 28 29 30 30 30 31 31 32 33 33 34 35 35 36 36 37 37 37 38 38 38 39 39 39 39 40 40 40 40 40 40 41 41
27 28 28 28 28 28 28 28 28 29 29 29 29 30 31 31 32 32 33 33 33 34 35 35 36 36 37 37 38 38 38 39 39 39 39 39 40 40 40 40 40 41 41
28 27 27 28 28 29 29 28 29 29 30 30 30 31 32 32 32 33 34 34 35 35 35 35 35 36 37 37 38 38 39 40 40 41 40 40 40 40 40 40 41 41 42
28 28 28 28 28 28 28 28 29 29 30 30 31 31 32 32 33 34 34 35 35 35 35 35 35 36 36 37 38 38 39 40 41 41 41 41 41 41 41 41 41 42 42
29 29 29 28 28 28 28 29 29 29 30 31 32 32 32 32 33 34 34 35 35 36 36 36 36 36 37 38 38 39 40 40 40 41 42 42 42 42 42 41 41 41 41
29 29 29 29 29 29 29 29 29 30 31 31 32 32 33 33 34 35 35 35 36 36 36 36 37 38 39 39 39 39 40 40 40 40 41 41 40 40 40 41 41 40 40
30 30 29 29 29 29 29 29 30 31 31 32 32 33 33 34 34 35 35 35 35 36 37 37 38 39 39 39 40 40 40 40 40 40 40 40 40 40 40 40 40 40 40
30 29 29 28 28 28 28 29 29 30 31 31 32 33 33 34 35 35 36 36 36 37 38 38 39 39 39 40 40 40 40 40 40 40 40 40 39 39 40 40 40 40 39
30 29 29 28 28 28 28 29 30 30 31 31 32 33 34 35 35 36 37 37 38 38 38 39 39 39 39 39 40 39 40 40 39 39 39 39 39 39 39 39 39 39 39
30 30 29 29 29 29 29 30 31 31 32 32 33 34 34 35 35 36 37 38 38 39 39 39 39 39 39 39 39 39 39 39 39 39 39 39 39 39 39 39 39 39 39
31 31 31 31 31 31 31 31 32 32 32 33 33 34 34 35 35 36 37 38 38 38 39 39 39 39 39 38 38 38 38 39 39 39 39 38 38 38 39 39 39 39 39
Wind_Direction
243 245 247 249 251 254 258 261 262 263 265 267 267 269 271 272 274 275 276 275 275 274 275 276 276 276 275 274 274 273 272 271 271 271 271 270 271 272 271 270 270 270 271
246 247 249 250 252 256 260 263 263 264 265 267 268 269 271 273 273 274 275 276 276 276 278 277 277 276 276 275 275 273 273 272 272 272 271 270 271 272 272 270 269 270 270
249 249 251 253 255 257 260 264 266 265 266 268 269 270 271 272 273 274 274 276 277 277 278 278 278 278 278 277 276 275 273 272 273 273 273 272 271 271 271 271 271 270 270
252 252 254 255 257 259 260 263 266 266 267 267 269 270 271 272 273 274 275 276 277 278 278 279 279 279 278 278 277 276 274 274 274 274 274 274 273 272 271 271 271 270 269
255 255 256 257 259 261 261 263 266 267 268 267 268 270 271 272 274 275 276 277 278 279 279 279 280 280 280 279 278 277 276 275 275 275 275 275 275 274 273 270 270 271 271
258 258 257 258 259 261 262 264 265 266 267 268 269 270 271 273 274 276 276 277 279 280 281 280 280 280 280 279 278 278 277 276 276 276 276 276 276 276 274 272 270 271 272
261 260 258 259 261 261 262 264 265 266 268 269 271 272 272 274 275 276 277 277 279 280 281 280 279 280 280 280 279 279 278 278 278 278 278 278 278 277 276 274 272 272 273
265 264 261 260 261 263 264 266 267 268 268 270 272 272 273 275 277 277 278 277 279 279 280 281 280 280 280 280 280 280 279 278 279 279 279 279 280 279 278 276 274 273 273
267 265 264 264 264 265 267 267 267 268 269 271 272 274 274 276 277 278 278 278 279 279 280 281 281 281 281 282 281 281 281 280 280 280 280 280 281 281 280 278 276 275 274
270 269 267 267 267 268 268 268 268 269 270 271 272 273 273 275 276 277 278 278 279 280 280 280 281 281 282 282 282 282 281 281 281 282 282 282 282 281 281 278 276 276 275
274 272 271 270 270 270 270 269 270 270 271 272 273 273 273 274 275 277 278 279 281 281 281 281 282 282 283 283 283 283 282 282 282 283 283 284 284 282 281 279 277 276 276
277 276 274 271 270 270 271 271 271 271 272 272 273 274 273 274 275 277 279 279 280 281 282 282 283 283 283 284 285 285 285 284 285 284 285 286 286 284 282 280 278 276 276
280 278 276 273 271 270 271 271 271 272 272 273 274 275 275 275 277 278 279 280 280 281 282 283 283 284 285 286 286 286 286 286 286 286 287 287 286 284 283 281 279 277 277
282 280 277 275 272 272 272 272 270 271 272 273 275 276 277 277 278 279 280 281 282 282 283 284 284 285 286 287 287 286 287 288 288 288 288 288 287 285 283 282 280 279 278
284 282 280 278 275 274 274 273 272 272 273 273 274 276 278 279 280 281 282 283 283 283 283 284 285 286 286 287 288 288 288 290 290 290 289 289 287 286 284 284 281 281 280
284 283 281 280 278 276 275 274 273 273 274 274 275 277 278 280 281 283 284 285 285 285 285 286 286 287 287 288 289 290 290 290 292 291 290 290 289 287 286 286 284 283 282
286 285 282 281 280 278 276 275 275 275 275 276 277 278 280 281 283 285 286 287 287 288 288 288 288 289 290 291 292 292 292 292 292 293 292 291 290 288 286 286 285 285 284
287 286 285 283 282 279 276 276 277 277 277 277 278 280 281 282 284 286 286 287 288 288 288 288 289 290 291 292 293 293 293 293 292 292 292 291 290 289 287 287 286 286 285
288 287 287 286 285 282 279 277 278 278 278 279 280 281 282 284 285 287 287 288 289 289 289 289 290 290 291 292 293 294 294 293 292 292 292 291 289 288 287 287 287 287 286
288 286 286 285 283 283 281 278 278 279 279 280 281 282 284 285 287 288 289 289 289 289 289 290 290 291 292 292 293 294 294 294 293 292 292 291 291 290 288 287 287 287 286
287 286 285 284 284 284 282 280 280 281 281 281 283 284 285 286 288 289 289 289 289 289 289 290 291 291 292 293 293 294 295 295 294 293 292 291 291 291 290 289 288 288 286
287 286 285 284 285 285 284 283 282 282 283 284 284 284 285 286 288 289 290 290 290 290 290 290 291 292 292 293 293 294 294 294 294 295 294 292 291 291 291 290 289 287 287
286 286 286 285 285 285 286 286 286 285 286 287 286 285 285 287 288 290 291 291 291 291 291 291 291 292 293 293 294 294 294 294 295 295 294 293 291 291 291 291 290 288 287
285 286 285 284 284 285 287 288 288 287 287 287 287 287 288 288 289 291 291 291 291 291 291 292 292 292 293 293 294 294 295 295 295 295 295 294 293 292 291 292 290 289 288
283 284 284 283 283 284 287 288 289 289 289 289 289 289 290 290 290 291 292 292 292 292 292 293 294 294 294 293 293 294 294 295 295 296 295 294 293 292 292 292 292 290 289
282 283 284 284 284 284 285 287 289 290 290 291 291 291 291 292 292 292 293 294 293 293 294 295 295 296 296 295 295 296 296 297 298 297 297 295 293 293 292 293 293 291 290
Height
5747 5750 5752 5755 5757 5759 5760 5761 5762 5762 5763 5763 5763 5763 5763 5763 5762 5762 5762 5761 5761 5760 5759 5759 5759 5758 5758 5757 5757 5757 5757 5758 5757 5758 5758 5759 5758 5759 5759 5759 5760 5760 5761
5741 5744 5746 5748 5750 5752 5753 5754 5754 5755 5755 5755 5756 5756 5756 5755 5754 5754 5753 5753 5752 5751 5750 5750 5749 5749 5748 5747 5747 5747 5747 5747 5747 5747 5747 5748 5749 5748 5748 5748 5749 5749 5750
5735 5737 5739 5741 5743 5744 5745 5746 5747 5747 5747 5747 5748 5748 5748 5747 5746 5746 5745 5744 5743 5742 5741 5741 5740 5739 5738 5738 5737 5736 5736 5736 5736 5735 5735 5736 5737 5737 5738 5737 5737 5738 5738
5729 5730 5732 5734 5735 5736 5738 5739 5739 5739 5740 5739 5740 5740 5739 5739 5738 5738 5737 5735 5734 5733 5732 5732 5731 5730 5729 5728 5727 5726 5725 5725 5725 5725 5724 5724 5724 5725 5726 5726 5726 5726 5726
5722 5723 5725 5726 5728 5729 5730 5731 5732 5732 5732 5732 5732 5731 5731 5731 5730 5729 5728 5727 5726 5724 5723 5722 5721 5720 5719 5717 5716 5716 5715 5714 5714 5713 5713 5712 5712 5711 5712 5713 5714 5713 5714
5715 5717 5718 5719 5720 5722 5722 5723 5724 5724 5724 5724 5724 5723 5723 5722 5722 5721 5720 5718 5717 5716 5714 5713 5712 5710 5709 5708 5706 5705 5704 5704 5703 5702 5701 5701 5700 5699 5699 5700 5701 5701 5701
5709 5710 5711 5712 5713 5714 5715 5715 5716 5716 5716 5716 5715 5715 5714 5714 5713 5712 5711 5710 5709 5707 5705 5704 5702 5701 5699 5698 5696 5695 5694 5693 5692 5691 5690 5689 5688 5687 5686 5686 5687 5688 5688
5703 5703 5704 5705 5706 5706 5707 5707 5708 5708 5708 5707 5707 5706 5706 5705 5704 5703 5702 5701 5700 5698 5696 5695 5693 5691 5690 5688 5686 5685 5684 5683 5681 5680 5679 5678 5676 5675 5674 5673 5673 5674 5675
5697 5697 5697 5698 5698 5698 5699 5699 5699 5699 5699 5699 5698 5698 5697 5696 5695 5694 5693 5692 5691 5689 5688 5685 5684 5682 5680 5678 5676 5675 5674 5672 5671 5670 5668 5666 5665 5663 5661 5660 5660 5660 5661
5691 5691 5691 5690 5690 5690 5690 5690 5690 5690 5690 5690 5689 5689 5688 5687 5687 5685 5684 5683 5682 5680 5678 5676 5675 5673 5671 5669 5667 5665 5664 5662 5661 5659 5657 5655 5653 5651 5649 5648 5647 5646 5647
5684 5683 5683 5683 5682 5682 5682 5682 5681 5681 5681 5681 5680 5680 5679 5679 5678 5676 5675 5674 5672 5671 5669 5667 5665 5663 5662 5660 5658 5656 5654 5652 5650 5648 5646 5643 5641 5639 5637 5635 5634 5634 5634
5677 5676 5675 5675 5674 5674 5674 5673 5673 5673 5673 5672 5672 5671 5671 5670 5669 5668 5666 5665 5663 5662 5660 5658 5656 5654 5652 5650 5648 5646 5644 5642 5640 5637 5634 5632 5629 5627 5625 5623 5622 5621 5621
5670 5669 5668 5667 5666 5666 5665 5665 5665 5665 5664 5664 5663 5663 5662 5661 5660 5659 5657 5656 5654 5652 5651 5649 5647 5645 5643 5641 5639 5636 5634 5632 5629 5626 5623 5620 5617 5615 5613 5611 5610 5609 5609
5663 5662 5660 5659 5658 5658 5657 5657 5657 5656 5656 5655 5655 5654 5653 5652 5651 5650 5648 5646 5645 5643 5641 5640 5638 5636 5634 5631 5629 5627 5624 5621 5618 5615 5612 5609 5606 5604 5601 5600 5598 5597 5596
5656 5654 5653 5652 5651 5650 5649 5649 5648 5648 5647 5647 5646 5645 5644 5643 5642 5641 5639 5637 5636 5634 5632 5630 5628 5626 5624 5621 5619 5616 5614 5611 5608 5605 5601 5598 5595 5593 5591 5589 5587 5586 5584
5649 5647 5646 5644 5643 5642 5642 5641 5640 5640 5639 5638 5638 5637 5636 5635 5633 5632 5630 5628 5626 5624 5622 5620 5618 5616 5614 5611 5608 5606 5603 5600 5597 5594 5591 5588 5585 5582 5580 5578 5576 5575 5573
5641 5640 5638 5637 5635 5634 5634 5633 5632 5632 5631 5630 5629 5628 5627 5626 5624 5623 5621 5619 5617 5615 5613 5611 5608 5606 5603 5601 5598 5595 5592 5590 5587 5584 5580 5577 5574 5571 5569 5567 5565 5563 5561
5634 5632 5630 5628 5627 5626 5625 5625 5624 5623 5623 5622 5621 5619 5618 5617 5615 5614 5612 5610 5608 5605 5603 5601 5598 5596 5593 5590 5587 5584 5582 5579 5575 5572 5569 5566 5564 5561 5558 5557 5554 5552 5549
5626 5624 5622 5621 5619 5618 5617 5617 5616 5615 5614 5613 5612 5610 5609 5608 5606 5604 5602 5600 5598 5596 5593 5591 5588 5586 5583 5580 5577 5574 5571 5568 5564 5561 5558 5555 5552 5549 5547 5545 5543 5540 5537
5618 5616 5615 5613 5612 5610 5609 5609 5608 5607 5605 5604 5603 5602 5600 5598 5597 5594 5592 5590 5588 5585 5583 5580 5578 5575 5572 5569 5566 5563 5559 5556 5553 5549 5546 5543 5540 5537 5534 5532 5530 5528 5525
5610 5608 5607 5606 5604 5602 5601 5600 5599 5598 5597 5595 5594 5592 5590 5589 5587 5584 5582 5580 5578 5575 5573 5570 5567 5564 5561 5558 5554 5550 5547 5544 5541 5537 5534 5531 5528 5525 5522 5519 5517 5515 5512
5602 5600 5599 5597 5596 5594 5593 5592 5590 5589 5587 5586 5584 5583 5581 5579 5577 5574 5572 5569 5567 5565 5562 5559 5556 5553 5549 5546 5542 5538 5535 5531 5529 5526 5522 5519 5516 5513 5510 5507 5504 5502 5499
5594 5592 5591 5589 5588 5586 5584 5583 5582 5580 5578 5577 5575 5573 5571 5569 5567 5564 5562 5559 5556 5554 5551 5548 5545 5541 5538 5534 5530 5527 5523 5519 5516 5513 5510 5507 5504 5501 5498 5495 5492 5489 5487
5585 5584 5582 5581 5580 5578 5576 5574 5573 5571 5569 5567 5565 5563 5561 5559 5556 5554 5551 5548 5546 5543 5540 5536 5533 5530 5526 5522 5518 5515 5511 5508 5505 5502 5498 5495 5492 5489 5486 5483 5480 5477 5475
5577 5575 5574 5572 5571 5569 5568 5566 5563 5561 5559 5557 5555 5553 5551 5549 5546 5543 5540 5537 5534 5531 5528 5525 5521 5518 5514 5510 5506 5503 5500 5497 5494 5490 5487 5484 5480 5477 5474 5471 5468 5465 5463
5568 5566 5565 5563 5562 5560 5558 5556 5554 5552 5550 5548 5545 5543 5541 5538 5535 5532 5529 5526 5523 5519 5516 5512 5509 5505 5502 5498 5495 5492 5488 5485 5482 5479 5475 5472 5468 5465 5462 5459 5456 5453 5451